Location: Dunedin
(45.8670°S, 170.5000°E)
Time: 16:14:30
(UTC+13:00)

Meteor 2-8 Rocket - Pass Details

Date: 24 January 2019
Orbit: 937 x 957 km, 82.5° (Epoch: 20 February)

Event Time Altitude Azimuth Distance (km) Brightness Sun altitude
Rises 23:17:26 0° 191° (S) 3,639 8.7 -16.3°
Reaches altitude 10° 23:19:56 10° 191° (S) 2,687 7.8 -16.6°
Maximum altitude 23:26:05 80° 276° (W) 968 4.5 -17.2°
Enters shadow 23:30:14 22° 1° (N) 1,953 5.6 -17.6°
